map of SID home
SID - Airport
Location
City:  Espargos, Cape Verde
Name:Amílcar Cabral International Airport
ICAO:GVAC
IATA:SID

Details
Type:Airport (Aerodrome, Airfield)
Use:Public/Civil, International (customs port of entry)
Latitude:16°44'29"N (16.741389)
Longitude:22°56'58"W (-22.949443)
Datum:WGS 1984
Elevation:177 ft (54 m)
Variation:8.94°W (WMM2015v2 magnetic declination)
0.16° annual change
Runways:2
Longest:10735 × 148 ft (3272 × 45 m), paved

Time
Time Zone:UTC-1
Local Time:

Weather
METAR:GVAC 041400Z 05014KT 9999 SCT014 BKN080 24/14 Q1016 NOSIG
TAF:GVAC 041100Z 0412/0518 05016KT 9999 BKN015 PROB30
TEMPO 0502/0506 05006KT

Related Locations
Nearby:
Farthest:RNL: 12023 mi / 19349 km
Tingoa [Rennell/Tingoa Airport], Rennell Island, RB, SB

Find:

   beyond  
but within

Other Information
Maps:
NOTAMs:
Links:
Sources:

  
  • flag of Cape Verde
  

Sectional Chart

Flight Planning
at skyvector.com

Satellite Image

Google Maps Satellite view

 

Copyright © 2004-2019 Karl L. Swartz. All rights reserved.
The Great Circle Mapper name and logo are trademarks of the Great Circle Mapper.
All other trademarks mentioned herein belong to their respective owners.
Please see credits for attibutions and further copyright information.

  Follow gcmap on Facebook Follow gcmap on Twitter GCmap on LinkedIn

hCard Microformat

Geo Microformat